Tracking 30703 objects as of 13-Jun-2025
HD Live streaming from Space Station
objects crossing your sky now

STARLINK-31165

Track STARLINK-31165 now!
10-day predictions
STARLINK-31165 is classified as:


NORAD ID: 58748
Int'l Code: 2024-005W
Perigee: 565.2 km
Apogee: 567.3 km
Inclination: 43.0 °
Period: 95.8 minutes
Semi major axis: 6937 km
RCS: Unknown
Launch date: January 7, 2024
Source: United States (US)
Launch site: AIR FORCE EASTERN TEST RANGE (AFETR)
Your satellite tracking list
Your tracking list is empty




NASA's NSSDC Master Catalog

Two Line Element Set (TLE):
1 58748U 24005W   25163.92571167  .00000673  00000-0  64890-4 0  9995
2 58748  43.0042 247.3248 0001545 271.9354  88.1311 15.02523694 79840
Source of the keplerian elements: AFSPC